Location: Guadanolo
(41.9167°N, 12.9333°E)
Time: 23:19:46
(UTC+00:00)

CZ-4 R/B - Pass Details

Date: 16 September 2019
Orbit: 532 x 598 km, 97.8° (Epoch: 14 October)

Event Time Altitude Azimuth Distance (km) Brightness Sun altitude
Rises 18:04:32 0° 192° (SSW) 2,664 4.8 -9.6°
Reaches altitude 10° 18:06:51 10° 204° (SSW) 1,783 4.1 -10.0°
Maximum altitude 18:10:09 27° 264° (W) 1,051 3.6 -10.6°
Drops below altitude 10° 18:13:32 10° 324° (NW) 1,816 4.8 -11.3°
Sets 18:15:55 0° 336° (NNW) 2,725 5.5 -11.7°
